Regional Weather Roundup
Issued by NWS

Home | Current Version | Previous Version | Graphics & Text | Print | Product List | Glossary On
Versions: 1 2 3 4 5 6 7 8 9 10 11 12 13 14 15 16 17 18 19 20 21 22 23 24 25 26 27 28 29 30 31 32 33 34 35 36 37 38 39 40 41 42 43 44 45 46 47 48 49 50
000
ASUS43 KDTX 281201
RWRMI
MICHIGAN HOURLY REGIONAL WEATHER ROUNDUP
NATIONAL WEATHER SERVICE DETROIT/PONTIAC MI
800 AM EDT SUN AUG 28 2016

NOTE: "FAIR" INDICATES FEW OR NO CLOUDS BELOW 12,000 FEET WITH NO
SIGNIFICANT WEATHER AND/OR OBSTRUCTION TO VISIBILITY.

MIZ047>049-052>055-059>063-066>070-074>076-081>083-281300-
SOUTHEAST LOWER MICHIGAN

CITY           SKY/WX    TMP DP  RH WIND       PRES   REMARKS
ADRIAN         PTSUNNY   68  68 100 SW3       30.19S FOG
6HR MIN TEMP:  67; 6HR MAX TEMP:  70;

ALMA           CLOUDY    71  71 100 W7        30.16S FOG
ANN ARBOR      FOG       70  70 100 CALM      30.18R VSB<1/4
CARO           CLOUDY    71  71  98 SW5       30.15R FOG
DETROIT CITY   CLOUDY    71  71 100 W5        30.17S FOG
6HR MIN TEMP:  70; 6HR MAX TEMP:  73;

DETROIT        FOG       70  70 100 SW3       30.18R VSB 3/4
6HR MIN TEMP:  69; 6HR MAX TEMP:  71;

FLINT          MOSUNNY   74  70  87 SW6       30.17R
6HR MIN TEMP:  73; 6HR MAX TEMP:  75;

GROSSE ILE     FOG       70  70  99 SW5       30.17R VSB 1/4
6HR MIN TEMP:  69; 6HR MAX TEMP:  71;

HILLSDALE      CLOUDY    74  70  89 CALM      30.19R
6HR MIN TEMP:  51; 6HR MAX TEMP:  84;

HOWELL         PTSUNNY   71  71  98 SW3       30.18R FOG
6HR MIN TEMP:  70; 6HR MAX TEMP:  72;


CITY           SKY/WX    TMP DP  RH WIND       PRES   REMARKS
JACKSON        MOSUNNY   73  73 100 W5        30.19R
6HR MIN TEMP:  70; 6HR MAX TEMP:  73;

LAMBERTVILLE   FOG       71  69  95 CALM      30.18S VSB 3/4
6HR MIN TEMP:  68; 6HR MAX TEMP:  71;

LANSING        PTSUNNY   72  69  90 W6        30.18R
6HR MIN TEMP:  71; 6HR MAX TEMP:  72;

LAPEER         PTSUNNY   72  70  96 CALM      30.17S FOG
6HR MIN TEMP:  65; 6HR MAX TEMP:  72;

MASON          PTSUNNY   72  70  94 SW3       30.18R FOG
MONROE         FOG       70  70 100 S5        30.17R VSB<1/4
MT. CLEMENS    CLOUDY    72  72 100 W7        30.15S FOG
PONTIAC        CLOUDY    71  70  96 S3        30.17R FOG
6HR MIN TEMP:  70; 6HR MAX TEMP:  72;

PORT HURON     FOG       70  70 100 CALM      30.16S VSB 3/4
TRI CITIES     PTSUNNY   71  70  96 CALM      30.16R FOG
6HR MIN TEMP:  69; 6HR MAX TEMP:  72;

MIDLAND        FAIR      70  70 100 S3        30.14R FOG
6HR MIN TEMP:  69; 6HR MAX TEMP:  71; 6HR PCP:  0.01;

TROY           CLOUDY    73  71  94 SW3       30.19R FOG
SAGINAW HB     CLOUDY    72  70  94 W5        30.15R
$$
MIZ043>046-050>051-056>058-064>065-071>073-077>080-281300-
SOUTHWEST LOWER MICHIGAN

CITY           SKY/WX    TMP DP  RH WIND       PRES   REMARKS
BATTLE CREEK   MOCLDY    69  69 100 S6        30.19R FOG
6HR MIN TEMP:  68; 6HR MAX TEMP:  70;

BENTON HARBOR  PTCLDY    71  69  93 CALM      30.17R FOG
6HR MIN TEMP:  70; 6HR MAX TEMP:  73;

BIG RAPIDS     CLOUDY    68  66  93 NW5       30.16R
6HR MIN TEMP:  68; 6HR MAX TEMP:  72;

COLDWATER      PTCLDY    72  72  99 CALM      30.19R FOG
6HR MIN TEMP:  69; 6HR MAX TEMP:  73;

FREMONT        FAIR      65  65  98 CALM      30.17R FOG
HOLLAND        PTCLDY    71  69  93 CALM      30.18S
6HR MIN TEMP:  71; 6HR MAX TEMP:  75;

GRAND RAPIDS   MOCLDY    72  68  87 NW5       30.18R FOG
6HR MIN TEMP:  71; 6HR MAX TEMP:  73;

IONIA          MOCLDY    71  69  95 CALM      30.16R FOG
6HR MIN TEMP:  70; 6HR MAX TEMP:  71;

KALAMAZOO      PTCLDY    71  69  93 CALM      30.18R FOG
6HR MIN TEMP:  71; 6HR MAX TEMP:  74;

LUDINGTON      CLOUDY    65  65  97 NW3       30.17R
6HR MIN TEMP:  61; 6HR MAX TEMP:  69;

MARSHALL       MOCLDY    72  72 100 SW3       30.18R
MOUNT PLEASANT CLOUDY    70  69  98 W3        30.15R FOG
6HR MIN TEMP:  68; 6HR MAX TEMP:  72;

MUSKEGON       CLOUDY    69  67  93 N3        30.18R
6HR MIN TEMP:  69; 6HR MAX TEMP:  74;

SOUTH HAVEN    MOCLDY    73  73  97 CALM      30.18R
$$
MIZ016>042-281300-
NORTHERN LOWER MICHIGAN

CITY           SKY/WX    TMP DP  RH WIND       PRES   REMARKS
ALPENA         CLOUDY    70  66  87 NW7       30.12R
6HR MIN TEMP:  69; 6HR MAX TEMP:  70;

BEAVER ISLAND  MOCLDY    65  63  91 W7        30.13S
6HR MIN TEMP:  64; 6HR MAX TEMP:  66;

BELLAIRE       CLOUDY    67  64  91 CALM      30.15R
6HR MIN TEMP:  67; 6HR MAX TEMP:  70;

CADILLAC       LGT RAIN  65  63  91 W8        30.17R
CHARLEVOIX     CLOUDY    68  64  88 W10       30.17R
6HR MIN TEMP:  67; 6HR MAX TEMP:  69;

FRANKFORT      CLOUDY    67  63  85 CALM      30.16S
GAYLORD        LGT RAIN  66  62  87 VRB5      30.16R FOG
6HR MIN TEMP:  66; 6HR MAX TEMP:  70; 6HR PCP:  0.03;

GRAYLING       CLOUDY    68  65  92 W5        30.16R
HARBOR SPRINGS CLOUDY    66  64  91 W7        30.13S
HOUGHTON LAKE  CLOUDY    68  65  90 W10       30.16R
6HR MIN TEMP:  68; 6HR MAX TEMP:  70; 6HR PCP:  0.38;

MANISTEE       CLOUDY    68  64  87 NW7       30.16S
OSCODA         PTSUNNY   69  69 100 SW5       30.12R
6HR MIN TEMP:  67; 6HR MAX TEMP:  71;

PELLSTON       CLOUDY    66  63  90 W5        30.13R
6HR MIN TEMP:  66; 6HR MAX TEMP:  69; 6HR PCP: TRACE;

ROGERS CITY    LGT RAIN  67  64  91 NW8       30.13R
TRAVERSE CITY  CLOUDY    69  64  84 VRB3      30.14R
6HR MIN TEMP:  68; 6HR MAX TEMP:  71;

$$
MIZ007>008-015-281300-
EASTERN UPPER MICHIGAN

CITY           SKY/WX    TMP DP  RH WIND       PRES   REMARKS
KINROSS        CLOUDY    63  61  93 W7        30.12R
6HR MIN TEMP:  63; 6HR MAX TEMP:  67;

MACKINAC ISLAN MOSUNNY   64  64 100 W13       30.11R
6HR MIN TEMP:  64; 6HR MAX TEMP:  68;

NEWBERRY       CLOUDY    61  60  97 SW6       30.12R
6HR MIN TEMP:  60; 6HR MAX TEMP:  62;

S. S. MARIE    CLOUDY    65  63  93 W8        30.09R
6HR MIN TEMP:  64; 6HR MAX TEMP:  67; 6HR PCP: TRACE;

$$
MIZ004>006-011>014-085-281300-
CENTRAL UPPER MICHIGAN

CITY           SKY/WX    TMP DP  RH WIND       PRES   REMARKS
MANISTIQUE     CLEAR     61  59  92 CALM      30.13R
6HR MIN TEMP:  58; 6HR MAX TEMP:  63;

ESCANABA       CLOUDY    62  61  96 W3        30.14R
6HR MIN TEMP:  59; 6HR MAX TEMP:  64;

MENOMINEE      MOCLDY   N/A N/A N/A W3          N/A
SAWYER-GWINN   PTCLDY    61  59  94 W7        30.15R
$$
MIZ001>003-009>011-084-281300-
WESTERN UPPER MICHIGAN

CITY           SKY/WX    TMP DP  RH WIND       PRES   REMARKS
IRON MOUNTAIN  CLEAR     60  57  89 N3        30.15R
6HR MIN TEMP:  59; 6HR MAX TEMP:  63;

HOUGHTON       CLEAR     61  57  87 NW10      30.14R
6HR MIN TEMP:  60; 6HR MAX TEMP:  63; 6HR PCP: TRACE;

IRONWOOD       MOCLDY    60  59  96 CALM      30.17R
6HR MIN TEMP:  60; 6HR MAX TEMP:  61;

$$

ABBREVIATIONS USED IN REMARKS
   TC - TEMPERATURE IN CELSIUS
  WCI - WIND CHILL INDEX
   HX - HEAT INDEX
  VSB - VISIBILITY





USA.gov is the U.S. government's official web portal to all federal, state and local government web resources and services.